This demonstration page uses our WeatherBlox Daily Observations layout. Learn more.

Hourly Observations for May 31, 2019

Temp ( °F °C ) Dew Point ( °F °C ) Humidity (%) Winds ( mph kmh ) Pressure ( in mb ) Visibility ( mi km ) Precip ( " mm )
12:15 am 00:15 Clear 70 21 63 17 78 78 W 7 11 29.77 1008 10 16.09344 0 0
12:35 am 00:35 Clear 70 21 63 17 78 78 W 6 9 29.77 1008 10 16.09344 0 0
12:55 am 00:55 Clear 70 21 63 17 78 78 WSW 7 11 29.77 1008 10 16.09344 0 0
1:15 am 01:15 Clear 70 21 63 17 78 78 WSW 3 6 29.8 1009 10 16.09344 0 0
1:35 am 01:35 Clear 68 20 63 17 83 83 W 7 11 29.8 1009 10 16.09344 0 0
1:55 am 01:55 Clear 70 21 63 17 78 78 W 9 15 29.8 1009 10 16.09344 0 0
2:15 am 02:15 Clear 70 21 63 17 78 78 WNW 9 15 29.8 1009 10 16.09344 0 0
2:35 am 02:35 Clear 70 21 63 17 78 78 W 7 11 29.8 1009 10 16.09344 0 0
2:55 am 02:55 Clear 70 21 63 17 78 78 WSW 7 11 29.8 1009 10 16.09344 0 0
3:15 am 03:15 Clear 70 21 63 17 78 78 W 5 7 29.8 1009 10 16.09344 0 0
3:35 am 03:35 Clear 70 21 63 17 78 78 Calm 29.8 1009 10 16.09344 0 0
3:55 am 03:55 Clear 68 20 63 17 83 83 Calm 29.8 1009 10 16.09344 0 0
4:15 am 04:15 Clear 70 21 61 16 73 73 SSW 5 7 29.8 1009 10 16.09344 0 0
4:35 am 04:35 Clear 68 20 61 16 78 78 Calm 29.8 1009 10 16.09344 0 0
4:55 am 04:55 Clear 66 19 63 17 88 88 W 5 7 29.8 1009 10 16.09344 0 0
5:15 am 05:15 Clear 68 20 61 16 78 78 W 3 6 29.8 1009 10 16.09344 0 0
5:35 am 05:35 Clear 64 18 61 16 88 88 W 3 6 29.8 1009 10 16.09344 0 0
5:55 am 05:55 Sunny 66 19 61 16 83 83 W 3 6 29.83 1010 10 16.09344 0 0
6:15 am 06:15 Sunny 63 17 61 16 94 94 WSW 5 7 29.83 1010 10 16.09344 0 0
6:35 am 06:35 Sunny 64 18 63 17 94 94 W 7 11 29.83 1010 10 16.09344 0 0
6:55 am 06:55 Sunny 68 20 63 17 83 83 W 5 7 29.83 1010 10 16.09344 0 0
7:15 am 07:15 Sunny 70 21 63 17 78 78 WSW 3 6 29.85 1011 10 16.09344 0 0
7:35 am 07:35 Sunny 70 21 63 17 78 78 WSW 3 6 29.85 1011 10 16.09344 0 0
7:55 am 07:55 Sunny 72 22 63 17 73 73 W 6 9 29.85 1011 10 16.09344 0 0
8:15 am 08:15 Sunny 72 22 64 18 78 78 W 7 11 29.85 1011 10 16.09344 0 0
8:35 am 08:35 Sunny 73 23 64 18 74 74 NW 9 15 29.88 1012 10 16.09344 0 0
8:55 am 08:55 Sunny 73 23 64 18 74 74 NW 7 11 29.88 1012 10 16.09344 0 0
9:15 am 09:15 Sunny 75 24 64 18 69 69 WNW 10 17 29.85 1011 10 16.09344 0 0
9:35 am 09:35 Sunny 75 24 64 18 69 69 NW 8 13 29.85 1011 10 16.09344 0 0
9:55 am 09:55 Sunny 77 25 64 18 65 65 WNW 8 13 29.85 1011 10 16.09344 0 0
10:15 am 10:15 Sunny 77 25 64 18 65 65 NW 12 19 29.85 1011 10 16.09344 0 0
10:35 am 10:35 Sunny 77 25 64 18 65 65 WNW 13 20 29.85 1011 10 16.09344 0 0
10:55 am 10:55 Sunny 79 26 64 18 61 61 NW 9 15 29.88 1012 10 16.09344 0 0
11:15 am 11:15 Sunny 79 26 64 18 61 61 NW 9 15 29.88 1012 10 16.09344 0 0
11:35 am 11:35 Partly Cloudy 79 26 64 18 61 61 NW 9 15 29.88 1012 10 16.09344 0 0
11:55 am 11:55 Cloudy 79 26 64 18 61 61 WNW 12 19 29.88 1012 10 16.09344 0 0
12:15 pm 12:15 Mostly Cloudy 81 27 63 17 54 54 NNW 10 17 29.88 1012 10 16.09344 0 0
12:35 pm 12:35 Partly Cloudy 81 27 64 18 58 58 WNW 12 19 29.85 1011 10 16.09344 0 0
12:55 pm 12:55 Partly Cloudy 81 27 63 17 54 54 NW 14 22 29.85 1011 10 16.09344 0 0
1:15 pm 13:15 Partly Cloudy 82 28 63 17 51 51 N 13 20 29.85 1011 10 16.09344 0 0
1:35 pm 13:35 Sunny 81 27 61 16 51 51 N 6 9 29.85 1011 10 16.09344 0 0
1:55 pm 13:55 Sunny 82 28 59 15 45 45 N 7 11 29.83 1010 10 16.09344 0 0
2:15 pm 14:15 Sunny 82 28 61 16 48 48 N 10 17 29.83 1010 10 16.09344 0 0
2:35 pm 14:35 Sunny 82 28 61 16 48 48 N 6 9 29.83 1010 10 16.09344 0 0
2:55 pm 14:55 Partly Cloudy 82 28 61 16 48 48 NNW 7 11 29.83 1010 10 16.09344 0 0
3:15 pm 15:15 Partly Cloudy 82 28 61 16 48 48 NNW 5 7 29.83 1010 10 16.09344 0 0
3:35 pm 15:35 Mostly Cloudy 82 28 61 16 48 48 N 8 13 29.8 1009 10 16.09344 0 0
3:55 pm 15:55 Partly Cloudy 82 28 61 16 48 48 Calm 29.8 1009 10 16.09344 0 0
4:15 pm 16:15 Partly Cloudy 82 28 61 16 48 48 NNW 5 7 29.8 1009 10 16.09344 0 0
4:35 pm 16:35 Sunny 82 28 61 16 48 48 N 5 7 29.8 1009 10 16.09344 0 0
4:55 pm 16:55 Sunny 84 29 63 17 48 48 WSW 3 6 29.77 1008 10 16.09344 0 0
5:15 pm 17:15 Mostly Cloudy 82 28 61 16 48 48 N 6 9 29.8 1009 10 16.09344 0 0
5:35 pm 17:35 Partly Cloudy 82 28 61 16 48 48 NNE 10 17 29.8 1009 10 16.09344 0 0
5:55 pm 17:55 Sunny 82 28 61 16 48 48 NNE 5 7 29.8 1009 10 16.09344 0 0
6:15 pm 18:15 Sunny 82 28 59 15 45 45 NNE 5 7 29.8 1009 10 16.09344 0 0
6:35 pm 18:35 Sunny 81 27 59 15 48 48 NNE 8 13 29.8 1009 10 16.09344 0 0
6:55 pm 18:55 Sunny 81 27 59 15 48 48 NNE 5 7 29.8 1009 10 16.09344 0 0
7:15 pm 19:15 Sunny 81 27 59 15 48 48 NNE 6 9 29.8 1009 10 16.09344 0 0
7:35 pm 19:35 Sunny 81 27 59 15 48 48 NNE 3 6 29.8 1009 10 16.09344 0 0
8:15 pm 20:15 Sunny 81 27 59 15 48 48 NNE 5 7 29.8 1009 10 16.09344 0 0
8:35 pm 20:35 Clear 79 26 59 15 51 51 Calm 29.83 1010 10 16.09344 0 0
8:55 pm 20:55 Clear 79 26 57 14 48 48 NNE 5 7 29.8 1009 10 16.09344 0 0
9:15 pm 21:15 Clear 77 25 63 17 61 61 Calm 29.83 1010 10 16.09344 0 0
9:35 pm 21:35 Partly Cloudy 73 23 63 17 69 69 NNW 3 6 29.83 1010 10 16.09344 0 0
9:55 pm 21:55 Clear 73 23 61 16 65 65 N 5 7 29.83 1010 10 16.09344 0 0
10:15 pm 22:15 Clear 73 23 61 16 65 65 NNW 5 7 29.83 1010 10 16.09344 0 0
10:35 pm 22:35 Clear 73 23 61 16 65 65 N 5 7 29.83 1010 10 16.09344 0 0
10:55 pm 22:55 Clear 73 23 61 16 65 65 NNE 5 7 29.83 1010 10 16.09344 0 0
11:15 pm 23:15 Clear 73 23 61 16 65 65 NNE 3 6 29.83 1010 10 16.09344 0 0
11:35 pm 23:35 Clear 73 23 61 16 65 65 N 6 9 29.83 1010 10 16.09344 0 0
11:55 pm 23:55 Clear 72 22 61 16 69 69 NNE 3 6 29.85 1011 10 16.09344 0 0

Powered by AerisWeather